| Date | Time | Temp. (oF) | Dew Point (oF) | Rel. Hum. (%) | Press. (in.) | Wind Dir. | Wind Speed (mph) | Hourly Rainfall (in.) |
|
|---|---|---|---|---|---|---|---|---|---|
| 1 | 05/01 | 00:00 | 58 | 58 | 100 | 29.77 | SW | 0 | 0.00 |
| 2 | 04/30 | 23:00 | 59 | 59 | 100 | 29.78 | WNW | 3 | 0.00 |
| 3 | 04/30 | 22:00 | 59 | 59 | 100 | 29.76 | WNW | 5 | 0.01 |
| 4 | 04/30 | 21:00 | 60 | 59 | 100 | 29.73 | NW | 1 | 0.02 |
| 5 | 04/30 | 20:00 | 61 | 60 | 100 | 29.73 | NW | 2 | 0.02 |
| 6 | 04/30 | 19:00 | 62 | 61 | 98 | 29.72 | S | 3 | 0.00 |
| 7 | 04/30 | 18:00 | 62 | 60 | 96 | 29.70 | S | 3 | 0.00 |
| 8 | 04/30 | 17:00 | 62 | 60 | 96 | 29.72 | SSW | 3 | 0.00 |
| 9 | 04/30 | 16:00 | 61 | 60 | 97 | 29.73 | SSE | 16 | 0.00 |
| 10 | 04/30 | 15:00 | 61 | 60 | 97 | 29.74 | SW | 10 | 0.00 |
| 11 | 04/30 | 14:00 | 60 | 59 | 100 | 29.75 | S | 5 | 0.00 |
| 12 | 04/30 | 13:00 | 58 | 58 | 100 | 29.76 | SSW | 5 | 0.00 |
| 13 | 04/30 | 12:00 | 57 | 57 | 100 | 29.79 | SSW | 13 | 0.00 |
| 14 | 04/30 | 11:00 | 56 | 55 | 100 | 29.81 | SSW | 8 | 0.00 |
| 15 | 04/30 | 10:00 | 55 | 54 | 100 | 29.83 | SSE | 5 | 0.02 |
| 16 | 04/30 | 09:00 | 54 | 54 | 100 | 29.87 | SSE | 6 | 0.04 |
| 17 | 04/30 | 08:00 | 53 | 53 | 100 | 29.90 | E | 5 | 0.07 |
| 18 | 04/30 | 07:00 | 53 | 53 | 100 | 29.90 | ESE | 4 | 0.04 |
| 19 | 04/30 | 06:00 | 52 | 51 | 100 | 29.90 | SE | 3 | 0.06 |
| 20 | 04/30 | 05:00 | 52 | 51 | 99 | 29.93 | ENE | 2 | 0.03 |
| 21 | 04/30 | 04:00 | 52 | 50 | 95 | 29.92 | E | 3 | 0.03 |
| 22 | 04/30 | 03:00 | 52 | 48 | 87 | 29.95 | ENE | 2 | 0.01 |
| 23 | 04/30 | 02:00 | 52 | 46 | 81 | 29.95 | ESE | 2 | 0.00 |
| 24 | 04/30 | 01:00 | 52 | 43 | 73 | 29.97 | NE | 2 | 0.00 |